Weather reports worldwide

Advertisment
Forli, Italy (16147): temperature & dewpoint: 15.05.2019 05:00:00 - 21.05.2019 05:00:00 (CEST)Forli, Italy (16147): wind speed: 15.05.2019 05:00:00 - 21.05.2019 05:00:00 (CEST)Forli, Italy (16147): wind direction: 15.05.2019 05:00:00 - 21.05.2019 05:00:00 (CEST)Forli, Italy (16147): reduced air pressure: 15.05.2019 05:00:00 - 21.05.2019 05:00:00 (CEST)Forli, Italy (16147): visibility: 15.05.2019 05:00:00 - 21.05.2019 05:00:00 (CEST)Forli, Italy (16147): precipitation: 15.05.2019 05:00:00 - 21.05.2019 05:00:00 (CEST)
Date & Time tt [°C] td [°C] ff [km/h] ff [kn] dd ppp [hPa] vv [km] rr [mm]
21.05.2019 05:00:00 14,3 9,9 6 4 S 1005,0 - 0,4
21.05.2019 04:00:00 15,1 9,2 4 2 SW 1005,4 - 0,0
21.05.2019 03:00:00 15,9 8,1 10 6 SW 1005,6 - 0,0
21.05.2019 02:00:00 16,0 8,0 9 5 SW 1005,5 - 0,0
21.05.2019 01:00:00 - - - - - - - -
21.05.2019 00:00:00 - - - - - - - -
20.05.2019 23:00:00 15,8 7,8 8 4 SW 1005,5 - 0,0
20.05.2019 22:00:00 16,1 7,3 7 4 WSW 1005,2 - 0,0
20.05.2019 21:00:00 16,5 7,4 6 3 WSW 1004,9 - 0,0
20.05.2019 20:00:00 17,3 6,8 18 10 SSW 1004,3 - 0,0
20.05.2019 19:00:00 18,4 6,3 23 12 SW 1003,9 - 0,0
20.05.2019 18:00:00 19,9 7,3 18 10 SW 1003,6 10 0,0
20.05.2019 17:00:00 19,7 7,4 9 5 WSW 1003,7 10 0,0
20.05.2019 16:00:00 19,9 6,6 18 10 WSW 1003,4 10 0,0
20.05.2019 15:00:00 20,5 8,2 11 6 W 1003,5 10 0,0
20.05.2019 14:00:00 20,3 5,5 11 6 W 1003,5 10 0,0
20.05.2019 13:00:00 19,9 5,5 8 4 SW 1003,4 10 0,0
20.05.2019 12:00:00 18,6 6,8 21 11 WSW 1003,5 10 0,0
20.05.2019 11:00:00 17,8 8,1 11 6 SW 1003,6 10 0,0
20.05.2019 10:00:00 16,6 - - - - - - -
20.05.2019 09:00:00 15,8 9,0 4 2 SSW 1003,0 - 0,0
20.05.2019 08:00:00 15,1 8,8 0 0 WSW 1002,6 - 0,0
20.05.2019 07:00:00 13,9 8,7 0 0 SSW 1002,3 - 0,0
20.05.2019 06:00:00 13,4 9,1 1 1 S 1001,9 - 0,0
20.05.2019 05:00:00 13,3 9,7 0 0 SSW 1002,1 - 0,0
20.05.2019 04:00:00 13,4 9,4 3 2 SSW 1002,2 - 0,0
20.05.2019 03:00:00 13,0 10,2 2 1 SSW 1002,3 - 0,0
20.05.2019 02:00:00 13,9 9,7 1 1 SSW 1002,3 - 0,0
20.05.2019 01:00:00 13,5 10,8 2 1 SSW 1002,4 - 0,0
20.05.2019 00:00:00 13,9 11,2 3 1 SSW 1002,5 - 0,0
19.05.2019 23:00:00 14,4 12,4 5 3 S 1002,5 - 0,0
19.05.2019 22:00:00 14,8 12,5 3 1 NNW 1002,5 - 0,4
19.05.2019 21:00:00 14,6 12,6 0 0 SSE 1002,1 - 0,0
19.05.2019 20:00:00 14,6 12,3 1 0 SE 1001,8 - 0,0
19.05.2019 19:00:00 14,7 12,7 5 3 SSE 1001,5 - 0,0
19.05.2019 18:00:00 15,3 13,1 7 4 SE 1001,7 - 0,0
19.05.2019 17:00:00 15,8 12,0 1 0 NNE 1001,8 - 0,0
19.05.2019 16:00:00 14,7 12,6 6 4 NW 1002,0 - 2,0
19.05.2019 15:00:00 14,0 12,6 0 0 SW 1001,4 - 6,8
19.05.2019 14:00:00 16,4 12,9 9 5 WSW 1001,0 - 0,6
19.05.2019 13:00:00 17,1 11,6 4 2 N 1001,0 - 0,0
19.05.2019 12:00:00 16,1 11,9 7 4 N 1001,3 - 0,0
19.05.2019 11:00:00 15,2 12,1 7 4 NNE 1001,6 - 0,0
19.05.2019 10:00:00 14,9 11,9 6 3 NNE 1001,7 - 0,0
19.05.2019 09:00:00 14,5 11,8 0 0 WNW 1001,6 - 0,0
19.05.2019 08:00:00 13,8 12,2 0 0 S 1001,5 - 0,0
19.05.2019 07:00:00 12,9 11,6 2 1 WSW 1001,7 - 0,0
19.05.2019 06:00:00 12,6 11,5 3 1 S 1001,9 - 0,0
19.05.2019 05:00:00 12,9 11,6 0 0 SW 1002,1 - 0,0
19.05.2019 04:00:00 13,0 11,9 0 0 S 1002,4 - 0,0
19.05.2019 03:00:00 13,4 12,3 4 2 WSW 1002,5 - 0,0
19.05.2019 02:00:00 13,5 12,4 5 3 WSW 1002,7 - 0,0
19.05.2019 01:00:00 13,9 12,8 4 2 WSW 1003,0 - 0,0
19.05.2019 00:00:00 14,3 13,2 3 1 W 1003,1 - 0,0
18.05.2019 23:00:00 14,7 13,2 4 2 WNW 1003,2 - 0,2
18.05.2019 22:00:00 14,8 13,3 0 0 SW 1003,0 - 0,0
18.05.2019 21:00:00 15,1 13,3 0 0 ESE 1002,8 - 0,0
18.05.2019 20:00:00 15,4 12,7 7 4 ENE 1002,6 - 0,8
18.05.2019 19:00:00 16,2 12,6 2 1 N 1002,4 - 0,0
18.05.2019 18:00:00 16,2 13,7 8 5 E 1002,2 - 0,0
18.05.2019 17:00:00 16,2 12,9 7 4 E 1001,8 - 0,0
18.05.2019 16:00:00 15,4 13,6 13 7 ENE 1002,0 - 0,0
18.05.2019 15:00:00 14,8 14,0 0 0 WNW 1002,4 - 14,6
18.05.2019 14:00:00 17,5 13,2 6 3 WSW 1001,8 - 0,0
18.05.2019 13:00:00 16,6 12,9 3 2 NNW 1002,2 - 0,0
18.05.2019 12:00:00 14,8 12,7 1 0 WNW 1002,7 - 0,2
18.05.2019 11:00:00 13,9 11,9 3 2 WNW 1002,8 - 0,4
18.05.2019 10:00:00 13,5 11,6 3 1 SE 1003,0 - 0,2
18.05.2019 09:00:00 13,1 10,8 10 5 NNE 1002,9 - 0,0
18.05.2019 08:00:00 13,4 11,6 7 4 ENE 1003,1 - 0,0
18.05.2019 07:00:00 13,4 11,8 2 1 NE 1003,3 - 0,0
18.05.2019 06:00:00 12,4 10,8 5 3 NNE 1003,4 - 0,0
18.05.2019 05:00:00 12,8 10,2 5 3 NE 1003,6 - 0,0
18.05.2019 04:00:00 13,2 11,4 10 5 ENE 1004,0 - 0,0
18.05.2019 03:00:00 13,4 12,1 8 4 ENE 1004,6 - 0,4
18.05.2019 02:00:00 13,5 12,2 1 1 E 1005,0 - 1,0
18.05.2019 01:00:00 13,6 12,0 0 0 WSW 1005,2 - 1,2
18.05.2019 00:00:00 14,1 11,8 3 2 ESE 1005,3 - 0,0
17.05.2019 23:00:00 14,4 11,7 5 3 E 1005,5 - 0,0
17.05.2019 22:00:00 14,6 11,6 7 4 E 1005,5 - 0,0
17.05.2019 21:00:00 14,8 11,4 7 4 E 1005,6 - 0,0
17.05.2019 20:00:00 15,3 - - - - 1005,4 - 0,0
17.05.2019 19:00:00 15,7 11,3 15 8 E 1005,6 - 0,0
17.05.2019 18:00:00 16,2 11,0 13 7 ENE - 10 0,0
17.05.2019 17:00:00 16,2 10,9 18 10 E 1006,3 10 0,0
17.05.2019 16:00:00 16,9 10,0 15 8 E - 10 0,0
17.05.2019 15:00:00 17,2 10,3 18 10 E 1006,9 10 0,0
17.05.2019 14:00:00 17,0 10,0 15 8 E - 10 0,0
17.05.2019 13:00:00 17,2 8,9 13 7 ENE 1007,3 10 0,0
17.05.2019 12:00:00 16,8 9,0 13 7 ENE - 10 0,0
17.05.2019 11:00:00 15,9 8,4 9 5 ENE 1007,5 10 0,0
17.05.2019 10:00:00 15,0 7,8 8 4 ESE 1007,9 10 0,0
17.05.2019 09:00:00 13,7 7,7 6 3 E 1007,9 - 0,0
17.05.2019 08:00:00 11,7 - - - - - - 0,0
17.05.2019 07:00:00 8,9 6,5 0 0 SSW 1007,9 - 0,0
17.05.2019 06:00:00 8,2 6,3 0 0 SSE 1007,6 - 0,0
17.05.2019 05:00:00 8,5 6,5 0 0 SW 1007,7 - 0,0
17.05.2019 04:00:00 9,1 6,7 4 2 S 1007,7 - 0,0
17.05.2019 03:00:00 9,7 7,1 5 3 S 1007,9 - 0,0
17.05.2019 02:00:00 9,7 7,3 1 1 S 1008,3 - 0,0
17.05.2019 01:00:00 10,8 7,7 3 2 SSW 1008,6 - 0,0
17.05.2019 00:00:00 11,7 8,0 5 3 S 1008,7 - 0,0
16.05.2019 23:00:00 - - - - - - - -
16.05.2019 22:00:00 13,7 7,2 6 3 ESE - - 0,0
16.05.2019 21:00:00 14,9 6,7 3 2 E 1008,3 - 0,0
16.05.2019 20:00:00 15,6 6,3 4 2 ESE 1008,2 - 0,0
16.05.2019 19:00:00 16,6 5,8 9 5 E 1008,2 - 0,0
16.05.2019 18:00:00 17,1 5,7 5 3 - 1008,4 10 0,0
16.05.2019 17:00:00 17,2 5,2 8 4 E 1008,6 10 0,0
16.05.2019 16:00:00 16,6 5,0 8 4 E - 10 0,0
16.05.2019 15:00:00 16,1 5,1 8 4 ENE 1009,6 10 0,0
16.05.2019 14:00:00 16,0 7,0 8 4 NNW - 10 0,0
16.05.2019 13:00:00 15,4 5,6 5 3 - 1010,2 10 0,0
16.05.2019 12:00:00 15,2 6,0 8 4 WNW 1010,2 10 0,0
16.05.2019 11:00:00 14,3 6,9 9 5 WNW 1010,7 10 0,0
16.05.2019 10:00:00 13,2 6,8 8 4 WNW 1011,2 10 0,0
16.05.2019 09:00:00 12,1 6,4 7 4 NW 1011,1 - 0,0
16.05.2019 08:00:00 10,6 6,4 4 2 SW 1011,1 - 0,0
16.05.2019 07:00:00 8,2 5,3 5 3 SW 1011,0 - 0,0
16.05.2019 06:00:00 6,7 4,5 6 3 WSW 1010,9 - 0,0
16.05.2019 05:00:00 6,6 4,6 5 3 WSW 1011,0 - 0,0
16.05.2019 04:00:00 7,1 4,7 6 3 SW 1011,2 - 0,0
16.05.2019 03:00:00 7,0 4,8 6 3 SW 1011,6 - 0,0
16.05.2019 02:00:00 7,1 5,1 5 3 WSW 1012,2 - 0,0
16.05.2019 01:00:00 7,1 5,2 6 3 WSW 1012,6 - 0,0
16.05.2019 00:00:00 7,7 5,7 5 3 WSW 1012,5 - 0,0
15.05.2019 23:00:00 8,1 6,2 7 4 SW 1012,4 - 0,0
15.05.2019 22:00:00 10,2 6,5 0 0 WSW 1012,2 - 0,0
15.05.2019 21:00:00 11,1 5,8 1 1 E 1011,8 - 0,0
15.05.2019 20:00:00 12,0 5,4 5 3 ENE 1011,6 - 0,0
15.05.2019 19:00:00 12,6 4,8 9 5 NNE 1011,1 - 0,0
15.05.2019 18:00:00 12,2 5,0 11 6 NE - 10 0,0
15.05.2019 17:00:00 12,6 4,3 11 6 NNE 1011,1 10 0,0
15.05.2019 16:00:00 11,9 5,5 8 4 N 1011,4 10 0,0
15.05.2019 15:00:00 10,7 7,9 0 0 N 1011,6 10 0,2
15.05.2019 14:00:00 9,5 9,0 5 3 - - 10 0,2
15.05.2019 13:00:00 8,5 7,3 11 6 WNW 1011,9 6 2,0
15.05.2019 12:00:00 7,6 6,7 9 5 W 1012,0 4,0 3,8
15.05.2019 11:00:00 7,3 5,9 11 6 W 1012,1 6 1,0
15.05.2019 10:00:00 7,0 5,0 9 5 WNW - 6 2,2
15.05.2019 09:00:00 6,5 5,4 3 2 W 1012,2 - 3,4
15.05.2019 08:00:00 6,4 5,2 4 2 WSW 1012,1 - 2,8
15.05.2019 07:00:00 6,5 5,1 3 2 WSW 1012,2 - 1,4
15.05.2019 06:00:00 6,7 5,0 4 2 NW 1012,6 - 1,4
15.05.2019 05:00:00 6,7 4,9 8 5 NNW 1012,7 - 1,4

tt = temperature
td = dewpoint
ff = wind speed
dd = wind direction
ppp = reduced air pressure
vv = visibility
rr = precipitation

Next stations